Rome, NY

1:32 PM EST on February 07, 2016 (GMT -0500)
Griffiss

Weather History for KRME - September, 2013

Change the Weather History Date:

Thursday, September 12, 2013

  Actual Average Record
Temperature  
Mean Temperature 72 °F -  
Max Temperature 78 °F 71 °F 86 °F (1982)
Min Temperature 64 °F 49 °F 39 °F (1985)
Cooling Degree Days 6    
Growing Degree Days 22 (Base 50)    
Moisture  
Dew Point 67 °F    
Average Humidity 89    
Maximum Humidity 96    
Minimum Humidity 69    
Precipitation  
Precipitation 0.25 in - - ()
Sea Level Pressure  
Sea Level Pressure 29.78 in    
Wind  
Wind Speed 5 mph (West)    
Max Wind Speed 13 mph    
Max Gust Speed 23 mph    
Visibility 8 miles    
Events Rain    
Averages and records for this station are not official NWS values.
T = Trace of Precipitation, MM = Missing Value Source: NWS Daily Summary

Daily Weather History Graph

Daily Weather History Graph

Search for Another Location

Airport or City:

Trip Planner

Search our weather history database for the weather conditions in past years. The results will help you decide how hot, cold, wet, or windy it might be!

Date:

Astronomy

Sep. 12, 2013 Rise Set
Actual Time 6:38 AM EDT 7:16 PM EDT
Civil Twilight 6:09 AM EDT 7:45 PM EDT
Nautical Twilight 5:35 AM EDT 8:19 PM EDT
Astronomical Twilight 5:00 AM EDT 8:54 PM EDT
Moon 2:14 PM EDT (9/12) 11:58 PM EDT (9/12)
Length of Visible Light 13h 35m
Length of Day
12h 38m
Waxing Crescent, 50% of the Moon is Illuminated
Sep 12
Waxing Crescent
Sep 12
First Quarter
Sep 19
Full
Sep 26
Last Quarter
Oct 4
New

Hourly Weather History & Observations

Time (EDT) Temp. Dew Point Humidity Pressure Visibility Wind Dir Wind Speed Gust Speed Precip Events Conditions
12:53 AM 70.0 °F 66.0 °F 87% 29.89 in 10.0 mi East 5.8 mph - N/A   Clear
1:53 AM 69.1 °F 66.0 °F 90% 29.89 in 10.0 mi East 3.5 mph - N/A   Clear
2:53 AM 66.9 °F 64.9 °F 93% 29.91 in 10.0 mi Calm Calm - N/A   Scattered Clouds
3:53 AM 69.1 °F 66.0 °F 90% 29.90 in 9.0 mi Calm Calm - 0.00 in   Mostly Cloudy
4:53 AM 68.0 °F 66.0 °F 93% 29.87 in 8.0 mi ESE 6.9 mph - N/A   Partly Cloudy
5:53 AM 68.0 °F 66.0 °F 93% 29.88 in 8.0 mi Calm Calm - N/A   Partly Cloudy
6:53 AM 66.0 °F 64.9 °F 96% 29.87 in 5.0 mi SE 3.5 mph - N/A   Partly Cloudy
7:53 AM 70.0 °F 66.9 °F 90% 29.87 in 9.0 mi East 4.6 mph - N/A   Scattered Clouds
8:53 AM 71.1 °F 66.9 °F 87% 29.86 in 9.0 mi ESE 4.6 mph - N/A   Partly Cloudy
9:53 AM 75.0 °F 68.0 °F 79% 29.84 in 10.0 mi West 5.8 mph - N/A   Mostly Cloudy
10:53 AM 77.0 °F 66.0 °F 69% 29.83 in 10.0 mi West 8.1 mph - N/A   Overcast
11:53 AM 77.0 °F 66.0 °F 69% 29.81 in 10.0 mi West 5.8 mph - N/A   Mostly Cloudy
12:53 PM 75.9 °F 66.0 °F 71% 29.79 in 10.0 mi West 12.7 mph - N/A   Overcast
1:26 PM 71.1 °F 68.0 °F 90% 29.82 in 1.8 mi West 10.4 mph 23.0 mph 0.07 in Rain Heavy Rain
1:37 PM 71.1 °F 68.0 °F 90% 29.81 in 2.0 mi West 6.9 mph - 0.11 in Rain Light Rain
1:53 PM 71.1 °F 68.0 °F 90% 29.79 in 8.0 mi West 4.6 mph - 0.12 in Rain Light Rain
2:53 PM 71.1 °F 68.0 °F 90% 29.77 in 6.0 mi West 6.9 mph - 0.04 in Rain Light Rain
3:15 PM 71.1 °F 68.0 °F 90% 29.75 in 7.0 mi NW 8.1 mph - 0.01 in Rain Light Rain
3:32 PM 71.1 °F 69.1 °F 93% 29.75 in 10.0 mi West 5.8 mph - 0.01 in   Overcast
3:53 PM 72.0 °F 69.1 °F 91% 29.73 in 10.0 mi West 5.8 mph - 0.01 in Rain Light Rain
4:25 PM 71.1 °F 68.0 °F 90% 29.73 in 10.0 mi WNW 8.1 mph - 0.00 in Rain Light Rain
4:53 PM 71.1 °F 68.0 °F 90% 29.73 in 8.0 mi WSW 8.1 mph - 0.00 in Rain Light Rain
5:11 PM 71.1 °F 69.1 °F 93% 29.73 in 7.0 mi WSW 4.6 mph - 0.00 in Rain Light Rain
5:19 PM 71.1 °F 68.0 °F 90% 29.72 in 5.0 mi West 3.5 mph - 0.00 in Rain Light Rain
5:38 PM 71.1 °F 69.1 °F 93% 29.73 in 5.0 mi SSW 3.5 mph - 0.02 in Rain Light Rain
5:53 PM 71.1 °F 69.1 °F 93% 29.72 in 4.0 mi WSW 4.6 mph - 0.04 in Rain Rain
6:02 PM 70.0 °F 68.0 °F 93% 29.73 in 3.0 mi WSW 6.9 mph - 0.01 in Rain Rain
6:20 PM 70.0 °F 66.9 °F 90% 29.72 in 6.0 mi West 8.1 mph - 0.03 in Rain Light Rain
6:53 PM 69.1 °F 66.0 °F 90% 29.71 in 10.0 mi West 3.5 mph - 0.04 in   Mostly Cloudy
7:16 PM 69.1 °F 66.9 °F 93% 29.73 in 10.0 mi West 5.8 mph - N/A   Overcast
7:53 PM 68.0 °F 64.9 °F 90% 29.72 in 10.0 mi West 3.5 mph - N/A   Scattered Clouds
8:04 PM 68.0 °F 64.9 °F 90% 29.73 in 10.0 mi West 4.6 mph - N/A   Mostly Cloudy
8:53 PM 68.0 °F 64.9 °F 90% 29.70 in 10.0 mi Calm Calm - N/A   Mostly Cloudy
9:53 PM 68.0 °F 64.9 °F 90% 29.71 in 10.0 mi West 5.8 mph - N/A   Overcast
10:12 PM 66.9 °F 64.0 °F 90% 29.72 in 10.0 mi WSW 6.9 mph - N/A   Overcast
10:53 PM 66.0 °F 64.0 °F 93% 29.71 in 10.0 mi WSW 5.8 mph - N/A   Mostly Cloudy
11:53 PM 64.9 °F 62.1 °F 90% 29.71 in 10.0 mi West 6.9 mph - N/A   Scattered Clouds